This is the latest recevied weather packets stored in our database for station/object N8XHB. If no packets are shown the sender has not sent any weather packets the latest 10 day(s).
| Time | Temp. | Humidity | Pressure | Rain* | Wind** | Luminosity | Snow |
|---|---|---|---|---|---|---|---|
| 1777896308 | 12.78° C | 67% | 1003.7 hPa | 0 mm | - | 152 W/m² | - |
| 1777896007 | 12.22° C | 68% | 1003.6 hPa | 0 mm | - | 139 W/m² | - |
| 1777895704 | 12.22° C | 69% | 1003.6 hPa | 0 mm | - | 126 W/m² | - |
| 1777895400 | 11.67° C | 69% | 1003.7 hPa | 0 mm | - | 113 W/m² | - |
| 1777895098 | 11.67° C | 70% | 1003.6 hPa | 0 mm | - | 98 W/m² | - |
| 1777894795 | 11.67° C | 71% | 1003.4 hPa | 0 mm | - | 84 W/m² | - |
| 1777894492 | 11.11° C | 71% | 1003.5 hPa | 0 mm | - | 73 W/m² | - |
| 1777894189 | 11.11° C | 72% | 1003.3 hPa | 0 mm | - | 66 W/m² | - |
| 1777893886 | 10.56° C | 73% | 1003.3 hPa | 0 mm | - | 59 W/m² | - |
| 1777893582 | 10.56° C | 73% | 1003.5 hPa | 0 mm | - | 45 W/m² | - |
| 1777893279 | 10.56° C | 73% | 1003.4 hPa | 0 mm | - | 37 W/m² | - |
| 1777892976 | 10.56° C | 74% | 1003.4 hPa | 0 mm | - | 30 W/m² | - |
| 1777892672 | 10.56° C | 74% | 1003.2 hPa | 0 mm | - | 24 W/m² | - |
| 1777892368 | 10° C | 74% | 1003.3 hPa | 0 mm | - | 18 W/m² | - |
| 1777892064 | 10° C | 75% | 1003.4 hPa | 0 mm | - | 14 W/m² | - |
| 1777891762 | 10° C | 74% | 1003.4 hPa | 0 mm | - | 10 W/m² | - |
| 1777891458 | 10° C | 74% | 1003.3 hPa | 0 mm | - | 7 W/m² | - |
| 1777891154 | 10° C | 74% | 1003.2 hPa | 0 mm | - | 5 W/m² | - |
| 1777890849 | 10° C | 74% | 1003.4 hPa | 0 mm | - | 3 W/m² | - |
| 1777890545 | 10° C | 74% | 1003.5 hPa | 0 mm | - | 2 W/m² | - |
| 1777890240 | 10° C | 74% | 1003.5 hPa | 0 mm | - | 1 W/m² | - |
| 1777889937 | 10° C | 74% | 1003.4 hPa | 0 mm | - | 0 W/m² | - |
| 1777889635 | 10° C | 74% | 1003.5 hPa | 0 mm | - | 0 W/m² | - |
| 1777889332 | 10° C | 74% | 1003.3 hPa | 0 mm | - | 0 W/m² | - |
| 1777889029 | 10° C | 74% | 1003.4 hPa | 0 mm | - | 0 W/m² | - |
* Rain latest hour (hover to see other rain measurements)
** Current wind speed in m/s (hover to see current wind gust speed)